Year,Month,Day,Hour,Minute,Value (Times are PST for temperature in C)
2015,07,02,00,00,23.30
2015,07,02,00,01,23.30
2015,07,02,00,02,23.30
2015,07,02,00,03,23.30
2015,07,02,00,04,23.30
2015,07,02,00,05,23.30
2015,07,02,00,06,23.30
2015,07,02,00,07,23.30
2015,07,02,00,08,23.30
2015,07,02,00,09,23.30
2015,07,02,00,10,23.30
2015,07,02,00,11,23.30
2015,07,02,00,12,23.20
2015,07,02,00,13,23.20
2015,07,02,00,14,23.20
2015,07,02,00,15,23.20
2015,07,02,00,16,23.10
2015,07,02,00,17,23.10
2015,07,02,00,18,23.10
2015,07,02,00,19,23.10
2015,07,02,00,20,23.10
2015,07,02,00,21,23.10
2015,07,02,00,22,23.00
2015,07,02,00,23,23.00
2015,07,02,00,24,23.00
2015,07,02,00,25,22.90
2015,07,02,00,26,22.90
2015,07,02,00,27,22.90
2015,07,02,00,28,22.90
2015,07,02,00,29,22.80
2015,07,02,00,30,22.80
2015,07,02,00,31,22.80
2015,07,02,00,32,22.80
2015,07,02,00,33,22.80
2015,07,02,00,34,22.70
2015,07,02,00,35,22.70
2015,07,02,00,36,22.70
2015,07,02,00,37,22.60
2015,07,02,00,38,22.60
2015,07,02,00,39,22.60
2015,07,02,00,40,22.50
2015,07,02,00,41,22.50
2015,07,02,00,42,22.50
2015,07,02,00,43,22.40
2015,07,02,00,44,22.40
2015,07,02,00,45,22.30
2015,07,02,00,46,22.30
2015,07,02,00,47,22.30
2015,07,02,00,48,22.30
2015,07,02,00,49,22.20
2015,07,02,00,50,22.20
2015,07,02,00,51,22.20
2015,07,02,00,52,22.20
2015,07,02,00,53,22.10
2015,07,02,00,54,22.10
2015,07,02,00,55,22.00
2015,07,02,00,56,21.90
2015,07,02,00,57,21.80
2015,07,02,00,58,21.80
2015,07,02,00,59,21.80
2015,07,02,01,00,21.80
2015,07,02,01,01,21.80
2015,07,02,01,02,21.70
2015,07,02,01,03,21.70
2015,07,02,01,04,21.70
2015,07,02,01,05,21.60
2015,07,02,01,06,21.60
2015,07,02,01,07,21.50
2015,07,02,01,08,21.50
2015,07,02,01,09,21.50
2015,07,02,01,10,21.40
2015,07,02,01,11,21.40
2015,07,02,01,12,21.40
2015,07,02,01,13,21.30
2015,07,02,01,14,21.30
2015,07,02,01,15,21.30
2015,07,02,01,16,21.20
2015,07,02,01,17,21.20
2015,07,02,01,18,21.10
2015,07,02,01,19,21.10
2015,07,02,01,20,21.00
2015,07,02,01,21,21.00
2015,07,02,01,22,21.00
2015,07,02,01,23,20.90
2015,07,02,01,24,20.90
2015,07,02,01,25,20.80
2015,07,02,01,26,20.80
2015,07,02,01,27,20.80
2015,07,02,01,28,20.80
2015,07,02,01,29,20.80
2015,07,02,01,30,20.80
2015,07,02,01,31,20.80
2015,07,02,01,32,20.80
2015,07,02,01,33,20.80
2015,07,02,01,34,20.80
2015,07,02,01,35,20.80
2015,07,02,01,36,20.80
2015,07,02,01,37,20.80
2015,07,02,01,38,20.80
2015,07,02,01,39,20.70
2015,07,02,01,40,20.70
2015,07,02,01,41,20.60
2015,07,02,01,42,20.60
2015,07,02,01,43,20.60
2015,07,02,01,44,20.60
2015,07,02,01,45,20.50
2015,07,02,01,46,20.50
2015,07,02,01,47,20.50
2015,07,02,01,48,20.50
2015,07,02,01,49,20.50
2015,07,02,01,50,20.50
2015,07,02,01,51,20.50
2015,07,02,01,52,20.40
2015,07,02,01,53,20.40
2015,07,02,01,54,20.40
2015,07,02,01,55,20.40
2015,07,02,01,56,20.50
2015,07,02,01,57,20.50
2015,07,02,01,58,20.50
2015,07,02,01,59,20.50
2015,07,02,02,00,20.50
2015,07,02,02,01,20.50
2015,07,02,02,02,20.50
2015,07,02,02,03,20.50
2015,07,02,02,04,20.50
2015,07,02,02,05,20.40
2015,07,02,02,06,20.40
2015,07,02,02,07,20.40
2015,07,02,02,08,20.40
2015,07,02,02,09,20.40
2015,07,02,02,10,20.40
2015,07,02,02,11,20.40
2015,07,02,02,12,20.30
2015,07,02,02,13,20.30
2015,07,02,02,14,20.20
2015,07,02,02,15,20.20
2015,07,02,02,16,20.10
2015,07,02,02,17,20.10
2015,07,02,02,18,20.00
2015,07,02,02,19,20.00
2015,07,02,02,20,19.90
2015,07,02,02,21,19.90
2015,07,02,02,22,19.90
2015,07,02,02,23,19.90
2015,07,02,02,24,19.90
2015,07,02,02,25,19.80
2015,07,02,02,26,19.80
2015,07,02,02,27,19.80
2015,07,02,02,28,19.80
2015,07,02,02,29,19.70
2015,07,02,02,30,19.70
2015,07,02,02,31,19.60
2015,07,02,02,32,19.60
2015,07,02,02,33,19.50
2015,07,02,02,34,19.50
2015,07,02,02,35,19.40
2015,07,02,02,36,19.40
2015,07,02,02,37,19.40
2015,07,02,02,38,19.40
2015,07,02,02,39,19.40
2015,07,02,02,40,19.40
2015,07,02,02,41,19.40
2015,07,02,02,42,19.40
2015,07,02,02,43,19.40
2015,07,02,02,44,19.40
2015,07,02,02,45,19.40
2015,07,02,02,46,19.40
2015,07,02,02,47,19.40
2015,07,02,02,48,19.40
2015,07,02,02,49,19.40
2015,07,02,02,50,19.40
2015,07,02,02,51,19.40
2015,07,02,02,52,19.40
2015,07,02,02,53,19.30
2015,07,02,02,54,19.30
2015,07,02,02,55,19.30
2015,07,02,02,56,19.30
2015,07,02,02,57,19.30
2015,07,02,02,58,19.20
2015,07,02,02,59,19.20
2015,07,02,03,00,19.20
2015,07,02,03,01,19.20
2015,07,02,03,02,19.20
2015,07,02,03,03,19.10
2015,07,02,03,04,19.10
2015,07,02,03,05,19.10
2015,07,02,03,06,19.10
2015,07,02,03,07,19.00
2015,07,02,03,08,19.00
2015,07,02,03,09,19.00
2015,07,02,03,10,19.00
2015,07,02,03,11,18.90
2015,07,02,03,12,18.90
2015,07,02,03,13,18.90
2015,07,02,03,14,18.90
2015,07,02,03,15,18.80
2015,07,02,03,16,18.80
2015,07,02,03,17,18.80
2015,07,02,03,18,18.80
2015,07,02,03,19,18.70
2015,07,02,03,20,18.70
2015,07,02,03,21,18.70
2015,07,02,03,22,18.70
2015,07,02,03,23,18.70
2015,07,02,03,24,18.70
2015,07,02,03,25,18.70
2015,07,02,03,26,18.70
2015,07,02,03,27,18.60
2015,07,02,03,28,18.60
2015,07,02,03,29,18.60
2015,07,02,03,30,18.60
2015,07,02,03,31,18.60
2015,07,02,03,32,18.60
2015,07,02,03,33,18.60
2015,07,02,03,34,18.50
2015,07,02,03,35,18.50
2015,07,02,03,36,18.50
2015,07,02,03,37,18.50
2015,07,02,03,38,18.50
2015,07,02,03,39,18.40
2015,07,02,03,40,18.40
2015,07,02,03,41,18.40
2015,07,02,03,42,18.40
2015,07,02,03,43,18.40
2015,07,02,03,44,18.40
2015,07,02,03,45,18.40
2015,07,02,03,46,18.30
2015,07,02,03,47,18.30
2015,07,02,03,48,18.30
2015,07,02,03,49,18.30
2015,07,02,03,50,18.30
2015,07,02,03,51,18.30
2015,07,02,03,52,18.20
2015,07,02,03,53,18.20
2015,07,02,03,54,18.20
2015,07,02,03,55,18.20
2015,07,02,03,56,18.20
2015,07,02,03,57,18.20
2015,07,02,03,58,18.20
2015,07,02,03,59,18.20
2015,07,02,04,00,18.10
2015,07,02,04,01,18.10
2015,07,02,04,02,18.10
2015,07,02,04,03,18.10
2015,07,02,04,04,18.10
2015,07,02,04,05,18.10
2015,07,02,04,06,18.00
2015,07,02,04,07,18.00
2015,07,02,04,08,18.00
2015,07,02,04,09,17.90
2015,07,02,04,10,17.90
2015,07,02,04,11,17.90
2015,07,02,04,12,17.80
2015,07,02,04,13,17.80
2015,07,02,04,14,17.80
2015,07,02,04,15,17.80
2015,07,02,04,16,17.80
2015,07,02,04,17,17.80
2015,07,02,04,18,17.80
2015,07,02,04,19,17.70
2015,07,02,04,20,17.70
2015,07,02,04,21,17.70
2015,07,02,04,22,17.70
2015,07,02,04,23,17.60
2015,07,02,04,24,17.60
2015,07,02,04,25,17.60
2015,07,02,04,26,17.60
2015,07,02,04,27,17.50
2015,07,02,04,28,17.50
2015,07,02,04,29,17.50
2015,07,02,04,30,17.50
2015,07,02,04,31,17.40
2015,07,02,04,32,17.40
2015,07,02,04,33,17.40
2015,07,02,04,34,17.40
2015,07,02,04,35,17.40
2015,07,02,04,36,17.40
2015,07,02,04,37,17.40
2015,07,02,04,38,17.40
2015,07,02,04,39,17.30
2015,07,02,04,40,17.30
2015,07,02,04,41,17.30
2015,07,02,04,42,17.30
2015,07,02,04,43,17.30
2015,07,02,04,44,17.20
2015,07,02,04,45,17.20
2015,07,02,04,46,17.20
2015,07,02,04,47,17.20
2015,07,02,04,48,17.20
2015,07,02,04,49,17.20
2015,07,02,04,50,17.10
2015,07,02,04,51,17.10
2015,07,02,04,52,17.10
2015,07,02,04,53,17.00
2015,07,02,04,54,17.00
2015,07,02,04,55,16.90
2015,07,02,04,56,16.90
2015,07,02,04,57,16.80
2015,07,02,04,58,16.80
2015,07,02,04,59,16.70
2015,07,02,05,00,16.70
2015,07,02,05,01,16.60
2015,07,02,05,02,16.60
2015,07,02,05,03,16.50
2015,07,02,05,04,16.50
2015,07,02,05,05,16.40
2015,07,02,05,06,16.40
2015,07,02,05,07,16.40
2015,07,02,05,08,16.40
2015,07,02,05,09,16.30
2015,07,02,05,10,16.30
2015,07,02,05,11,16.30
2015,07,02,05,12,16.30
2015,07,02,05,13,16.30
2015,07,02,05,14,16.30
2015,07,02,05,15,16.30
2015,07,02,05,16,16.30
2015,07,02,05,17,16.30
2015,07,02,05,18,16.30
2015,07,02,05,19,16.30
2015,07,02,05,20,16.30
2015,07,02,05,21,16.20
2015,07,02,05,22,16.20
2015,07,02,05,23,16.20
2015,07,02,05,24,16.20
2015,07,02,05,25,16.20
2015,07,02,05,26,16.20
2015,07,02,05,27,16.10
2015,07,02,05,28,16.10
2015,07,02,05,29,16.10
2015,07,02,05,30,16.00
2015,07,02,05,31,16.00
2015,07,02,05,32,15.90
2015,07,02,05,33,15.90
2015,07,02,05,34,15.90
2015,07,02,05,35,15.80
2015,07,02,05,36,15.80
2015,07,02,05,37,15.80
2015,07,02,05,38,15.80
2015,07,02,05,39,15.70
2015,07,02,05,40,15.70
2015,07,02,05,41,15.70
2015,07,02,05,42,15.70
2015,07,02,05,43,15.60
2015,07,02,05,44,15.60
2015,07,02,05,45,15.60
2015,07,02,05,46,15.60
2015,07,02,05,47,15.60
2015,07,02,05,48,15.50
2015,07,02,05,49,15.50
2015,07,02,05,50,15.50
2015,07,02,05,51,15.50
2015,07,02,05,52,15.50
2015,07,02,05,53,15.40
2015,07,02,05,54,15.40
2015,07,02,05,55,15.40
2015,07,02,05,56,15.40
2015,07,02,05,57,15.40
2015,07,02,05,58,15.40
2015,07,02,05,59,15.40
2015,07,02,06,00,15.40
2015,07,02,06,01,15.40
2015,07,02,06,02,15.40
2015,07,02,06,03,15.40
2015,07,02,06,04,15.40
2015,07,02,06,05,15.40
2015,07,02,06,06,15.30
2015,07,02,06,07,15.30
2015,07,02,06,08,15.30
2015,07,02,06,09,15.30
2015,07,02,06,10,15.30
2015,07,02,06,11,15.30
2015,07,02,06,12,15.30
2015,07,02,06,13,15.30
2015,07,02,06,14,15.30
2015,07,02,06,15,15.20
2015,07,02,06,16,15.20
2015,07,02,06,17,15.20
2015,07,02,06,18,15.20
2015,07,02,06,19,15.20
2015,07,02,06,20,15.20
2015,07,02,06,21,15.10
2015,07,02,06,22,15.10
2015,07,02,06,23,15.10
2015,07,02,06,24,15.10
2015,07,02,06,25,15.10
2015,07,02,06,26,15.10
2015,07,02,06,27,15.10
2015,07,02,06,28,15.10
2015,07,02,06,29,15.10
2015,07,02,06,30,15.20
2015,07,02,06,31,15.20
2015,07,02,06,32,15.30
2015,07,02,06,33,15.30
2015,07,02,06,34,15.30
2015,07,02,06,35,15.40
2015,07,02,06,36,15.40
2015,07,02,06,37,15.40
2015,07,02,06,38,15.50
2015,07,02,06,39,15.50
2015,07,02,06,40,15.50
2015,07,02,06,41,15.50
2015,07,02,06,42,15.60
2015,07,02,06,43,15.60
2015,07,02,06,44,15.60
2015,07,02,06,45,15.70
2015,07,02,06,46,15.70
2015,07,02,06,47,15.80
2015,07,02,06,48,15.80
2015,07,02,06,49,15.90
2015,07,02,06,50,15.90
2015,07,02,06,51,15.90
2015,07,02,06,52,16.00
2015,07,02,06,53,16.00
2015,07,02,06,54,16.10
2015,07,02,06,55,16.10
2015,07,02,06,56,16.10
2015,07,02,06,57,16.20
2015,07,02,06,58,16.30
2015,07,02,06,59,16.30
2015,07,02,07,00,16.40
2015,07,02,07,01,16.40
2015,07,02,07,02,16.40
2015,07,02,07,03,16.50
2015,07,02,07,04,16.50
2015,07,02,07,05,16.60
2015,07,02,07,06,16.70
2015,07,02,07,07,16.70
2015,07,02,07,08,16.80
2015,07,02,07,09,16.80
2015,07,02,07,10,16.90
2015,07,02,07,11,17.00
2015,07,02,07,12,17.10
2015,07,02,07,13,17.20
2015,07,02,07,14,17.30
2015,07,02,07,15,17.40
2015,07,02,07,16,17.40
2015,07,02,07,17,17.50
2015,07,02,07,18,17.60
2015,07,02,07,19,17.70
2015,07,02,07,20,17.80
2015,07,02,07,21,17.80
2015,07,02,07,22,17.90
2015,07,02,07,23,18.00
2015,07,02,07,24,18.10
2015,07,02,07,25,18.20
2015,07,02,07,26,18.30
2015,07,02,07,27,18.40
2015,07,02,07,28,18.50
2015,07,02,07,29,18.60
2015,07,02,07,30,18.60
2015,07,02,07,31,18.70
2015,07,02,07,32,18.80
2015,07,02,07,33,18.80
2015,07,02,07,34,18.90
2015,07,02,07,35,19.10
2015,07,02,07,36,19.10
2015,07,02,07,37,19.20
2015,07,02,07,38,19.30
2015,07,02,07,39,19.40
2015,07,02,07,40,19.50
2015,07,02,07,41,19.50
2015,07,02,07,42,19.60
2015,07,02,07,43,19.60
2015,07,02,07,44,19.60
2015,07,02,07,45,19.60
2015,07,02,07,46,19.50
2015,07,02,07,47,19.50
2015,07,02,07,48,19.40
2015,07,02,07,49,19.40
2015,07,02,07,50,19.40
2015,07,02,07,51,19.50
2015,07,02,07,52,19.50
2015,07,02,07,53,19.60
2015,07,02,07,54,19.60
2015,07,02,07,55,19.70
2015,07,02,07,56,19.70
2015,07,02,07,57,19.70
2015,07,02,07,58,19.80
2015,07,02,07,59,19.80
2015,07,02,08,00,19.80
2015,07,02,08,01,19.80
2015,07,02,08,02,19.70
2015,07,02,08,03,19.80
2015,07,02,08,04,19.80
2015,07,02,08,05,19.80
2015,07,02,08,06,19.80
2015,07,02,08,07,19.80
2015,07,02,08,08,19.80
2015,07,02,08,09,19.80
2015,07,02,08,10,19.80
2015,07,02,08,11,19.80
2015,07,02,08,12,19.80
2015,07,02,08,13,19.80
2015,07,02,08,14,19.80
2015,07,02,08,15,19.80
2015,07,02,08,16,19.80
2015,07,02,08,17,19.80
2015,07,02,08,18,19.70
2015,07,02,08,19,19.70
2015,07,02,08,20,19.70
2015,07,02,08,21,19.70
2015,07,02,08,22,19.70
2015,07,02,08,23,19.70
2015,07,02,08,24,19.70
2015,07,02,08,25,19.70
2015,07,02,08,26,19.80
2015,07,02,08,27,19.90
2015,07,02,08,28,20.00
2015,07,02,08,29,20.00
2015,07,02,08,30,20.00
2015,07,02,08,31,20.10
2015,07,02,08,32,20.10
2015,07,02,08,33,20.20
2015,07,02,08,34,20.20
2015,07,02,08,35,20.30
2015,07,02,08,36,20.30
2015,07,02,08,37,20.40
2015,07,02,08,38,20.40
2015,07,02,08,39,20.50
2015,07,02,08,40,20.60
2015,07,02,08,41,20.60
2015,07,02,08,42,20.60
2015,07,02,08,43,20.50
2015,07,02,08,44,20.40
2015,07,02,08,45,20.40
2015,07,02,08,46,20.30
2015,07,02,08,47,20.10
2015,07,02,08,48,20.00
2015,07,02,08,49,19.90
2015,07,02,08,50,19.90
2015,07,02,08,51,19.90
2015,07,02,08,52,19.80
2015,07,02,08,53,19.80
2015,07,02,08,54,19.80
2015,07,02,08,55,19.80
2015,07,02,08,56,19.90
2015,07,02,08,57,19.90
2015,07,02,08,58,20.00
2015,07,02,08,59,20.00
2015,07,02,09,00,20.10
2015,07,02,09,01,20.00
2015,07,02,09,02,19.90
2015,07,02,09,03,19.90
2015,07,02,09,04,19.90
2015,07,02,09,05,19.90
2015,07,02,09,06,19.90
2015,07,02,09,07,19.90
2015,07,02,09,08,19.90
2015,07,02,09,09,19.90
2015,07,02,09,10,19.90
2015,07,02,09,11,19.90
2015,07,02,09,12,19.90
2015,07,02,09,13,19.90
2015,07,02,09,14,19.90
2015,07,02,09,15,19.90
2015,07,02,09,16,19.90
2015,07,02,09,17,19.90
2015,07,02,09,18,19.90
2015,07,02,09,19,19.90
2015,07,02,09,20,20.00
2015,07,02,09,21,20.10
2015,07,02,09,22,20.10
2015,07,02,09,23,20.20
2015,07,02,09,24,20.30
2015,07,02,09,25,20.50
2015,07,02,09,26,20.60
2015,07,02,09,27,20.70
2015,07,02,09,28,20.80
2015,07,02,09,29,20.80
2015,07,02,09,30,20.80
2015,07,02,09,31,20.80
2015,07,02,09,32,20.80
2015,07,02,09,33,20.80
2015,07,02,09,34,20.80
2015,07,02,09,35,20.80
2015,07,02,09,36,20.80
2015,07,02,09,37,20.80
2015,07,02,09,38,20.90
2015,07,02,09,39,20.90
2015,07,02,09,40,21.00
2015,07,02,09,41,21.00
2015,07,02,09,42,21.00
2015,07,02,09,43,21.00
2015,07,02,09,44,21.10
2015,07,02,09,45,21.10
2015,07,02,09,46,21.10
2015,07,02,09,47,21.00
2015,07,02,09,48,20.90
2015,07,02,09,49,20.90
2015,07,02,09,50,20.90
2015,07,02,09,51,20.90
2015,07,02,09,52,20.80
2015,07,02,09,53,20.90
2015,07,02,09,54,20.90
2015,07,02,09,55,20.90
2015,07,02,09,56,20.80
2015,07,02,09,57,20.80
2015,07,02,09,58,20.80
2015,07,02,09,59,20.80
2015,07,02,10,00,20.80
2015,07,02,10,01,20.80
2015,07,02,10,02,20.80
2015,07,02,10,03,20.70
2015,07,02,10,04,20.60
2015,07,02,10,05,20.60
2015,07,02,10,06,20.50
2015,07,02,10,07,20.50
2015,07,02,10,08,20.60
2015,07,02,10,09,20.60
2015,07,02,10,10,20.70
2015,07,02,10,11,20.80
2015,07,02,10,12,20.90
2015,07,02,10,13,21.00
2015,07,02,10,14,21.10
2015,07,02,10,15,21.10
2015,07,02,10,16,21.10
2015,07,02,10,17,21.20
2015,07,02,10,18,21.20
2015,07,02,10,19,21.30
2015,07,02,10,20,21.50
2015,07,02,10,21,21.60
2015,07,02,10,22,21.70
2015,07,02,10,23,21.60
2015,07,02,10,24,21.50
2015,07,02,10,25,21.40
2015,07,02,10,26,21.30
2015,07,02,10,27,21.20
2015,07,02,10,28,21.20
2015,07,02,10,29,21.20
2015,07,02,10,30,21.20
2015,07,02,10,31,21.20
2015,07,02,10,32,21.20
2015,07,02,10,33,21.20
2015,07,02,10,34,21.30
2015,07,02,10,35,21.30
2015,07,02,10,36,21.30
2015,07,02,10,37,21.30
2015,07,02,10,38,21.20
2015,07,02,10,39,21.20
2015,07,02,10,40,21.20
2015,07,02,10,41,21.20
2015,07,02,10,42,21.30
2015,07,02,10,43,21.40
2015,07,02,10,44,21.50
2015,07,02,10,45,21.50
2015,07,02,10,46,21.70
2015,07,02,10,47,21.80
2015,07,02,10,48,21.80
2015,07,02,10,49,21.80
2015,07,02,10,50,21.90
2015,07,02,10,51,21.80
2015,07,02,10,52,21.80
2015,07,02,10,53,21.90
2015,07,02,10,54,22.00
2015,07,02,10,55,22.10
2015,07,02,10,56,22.20
2015,07,02,10,57,22.20
2015,07,02,10,58,22.20
2015,07,02,10,59,22.20
2015,07,02,11,00,22.20
2015,07,02,11,01,22.20
2015,07,02,11,02,22.30
2015,07,02,11,03,22.30
2015,07,02,11,04,22.20
2015,07,02,11,05,22.20
2015,07,02,11,06,22.10
2015,07,02,11,07,22.10
2015,07,02,11,08,22.10
2015,07,02,11,09,22.10
2015,07,02,11,10,22.20
2015,07,02,11,11,22.30
2015,07,02,11,12,22.40
2015,07,02,11,13,22.40
2015,07,02,11,14,22.40
2015,07,02,11,15,22.40
2015,07,02,11,16,22.30
2015,07,02,11,17,22.30
2015,07,02,11,18,22.20
2015,07,02,11,19,22.10
2015,07,02,11,20,22.10
2015,07,02,11,21,22.10
2015,07,02,11,22,22.20
2015,07,02,11,23,22.20
2015,07,02,11,24,22.20
2015,07,02,11,25,22.30
2015,07,02,11,26,22.30
2015,07,02,11,27,22.40
2015,07,02,11,28,22.50
2015,07,02,11,29,22.50
2015,07,02,11,30,22.50
2015,07,02,11,31,22.50
2015,07,02,11,32,22.40
2015,07,02,11,33,22.40
2015,07,02,11,34,22.50
2015,07,02,11,35,22.50
2015,07,02,11,36,22.40
2015,07,02,11,37,22.40
2015,07,02,11,38,22.40
2015,07,02,11,39,22.40
2015,07,02,11,40,22.50
2015,07,02,11,41,22.60
2015,07,02,11,42,22.60
2015,07,02,11,43,22.60
2015,07,02,11,44,22.60
2015,07,02,11,45,22.60
2015,07,02,11,46,22.60
2015,07,02,11,47,22.70
2015,07,02,11,48,22.70
2015,07,02,11,49,22.70
2015,07,02,11,50,22.70
2015,07,02,11,51,22.80
2015,07,02,11,52,22.80
2015,07,02,11,53,22.90
2015,07,02,11,54,22.90
2015,07,02,11,55,22.90
2015,07,02,11,56,22.90
2015,07,02,11,57,22.90
2015,07,02,11,58,23.00
2015,07,02,11,59,23.00
2015,07,02,12,00,23.00
2015,07,02,12,01,23.00
2015,07,02,12,02,23.00
2015,07,02,12,03,23.00
2015,07,02,12,04,23.10
2015,07,02,12,05,23.20
2015,07,02,12,06,23.20
2015,07,02,12,07,23.20
2015,07,02,12,08,23.20
2015,07,02,12,09,23.10
2015,07,02,12,10,23.00
2015,07,02,12,11,22.90
2015,07,02,12,12,22.90
2015,07,02,12,13,23.00
2015,07,02,12,14,23.10
2015,07,02,12,15,23.20
2015,07,02,12,16,23.30
2015,07,02,12,17,23.40
2015,07,02,12,18,23.60
2015,07,02,12,19,23.70
2015,07,02,12,20,23.80
2015,07,02,12,21,23.80
2015,07,02,12,22,23.90
2015,07,02,12,23,24.00
2015,07,02,12,24,24.10
2015,07,02,12,25,24.20
2015,07,02,12,26,24.30
2015,07,02,12,27,24.30
2015,07,02,12,28,24.30
2015,07,02,12,29,24.30
2015,07,02,12,30,24.20
2015,07,02,12,31,24.20
2015,07,02,12,32,24.20
2015,07,02,12,33,24.10
2015,07,02,12,34,24.10
2015,07,02,12,35,24.00
2015,07,02,12,36,24.00
2015,07,02,12,37,24.00
2015,07,02,12,38,24.00
2015,07,02,12,39,24.10
2015,07,02,12,40,24.10
2015,07,02,12,41,24.10
2015,07,02,12,42,24.00
2015,07,02,12,43,24.00
2015,07,02,12,44,23.90
2015,07,02,12,45,23.80
2015,07,02,12,46,23.80
2015,07,02,12,47,23.70
2015,07,02,12,48,23.70
2015,07,02,12,49,23.60
2015,07,02,12,50,23.60
2015,07,02,12,51,23.60
2015,07,02,12,52,23.60
2015,07,02,12,53,23.60
2015,07,02,12,54,23.60
2015,07,02,12,55,23.70
2015,07,02,12,56,23.70
2015,07,02,12,57,23.90
2015,07,02,12,58,23.90
2015,07,02,12,59,23.90
2015,07,02,13,00,23.90
2015,07,02,13,01,24.00
2015,07,02,13,02,24.10
2015,07,02,13,03,24.20
2015,07,02,13,04,24.30
2015,07,02,13,05,24.40
2015,07,02,13,06,24.50
2015,07,02,13,07,24.70
2015,07,02,13,08,24.80
2015,07,02,13,09,25.00
2015,07,02,13,10,25.10
2015,07,02,13,11,25.20
2015,07,02,13,12,25.20
2015,07,02,13,13,25.20
2015,07,02,13,14,25.30
2015,07,02,13,15,25.40
2015,07,02,13,16,25.40
2015,07,02,13,17,25.40
2015,07,02,13,18,25.40
2015,07,02,13,19,25.30
2015,07,02,13,20,25.30
2015,07,02,13,21,25.20
2015,07,02,13,22,25.20
2015,07,02,13,23,25.20
2015,07,02,13,24,25.30
2015,07,02,13,25,25.30
2015,07,02,13,26,25.40
2015,07,02,13,27,25.50
2015,07,02,13,28,25.60
2015,07,02,13,29,25.60
2015,07,02,13,30,25.60
2015,07,02,13,31,25.50
2015,07,02,13,32,25.50
2015,07,02,13,33,25.50
2015,07,02,13,34,25.50
2015,07,02,13,35,25.50
2015,07,02,13,36,25.50
2015,07,02,13,37,25.50
2015,07,02,13,38,25.60
2015,07,02,13,39,25.60
2015,07,02,13,40,25.70
2015,07,02,13,41,25.80
2015,07,02,13,42,25.80
2015,07,02,13,43,25.80
2015,07,02,13,44,25.90
2015,07,02,13,45,26.00
2015,07,02,13,46,26.10
2015,07,02,13,47,26.20
2015,07,02,13,48,26.40
2015,07,02,13,49,26.60
2015,07,02,13,50,26.80
2015,07,02,13,51,27.00
2015,07,02,13,52,27.20
2015,07,02,13,53,27.30
2015,07,02,13,54,27.40
2015,07,02,13,55,27.50
2015,07,02,13,56,27.50
2015,07,02,13,57,27.60
2015,07,02,13,58,27.60
2015,07,02,13,59,27.60
2015,07,02,14,00,27.70
2015,07,02,14,01,27.70
2015,07,02,14,02,27.70
2015,07,02,14,03,27.80
2015,07,02,14,04,28.00
2015,07,02,14,05,28.10
2015,07,02,14,06,28.20
2015,07,02,14,07,28.20
2015,07,02,14,08,28.20
2015,07,02,14,09,28.30
2015,07,02,14,10,28.30
2015,07,02,14,11,28.20
2015,07,02,14,12,28.20
2015,07,02,14,13,28.30
2015,07,02,14,14,28.40
2015,07,02,14,15,28.50
2015,07,02,14,16,28.60
2015,07,02,14,17,28.60
2015,07,02,14,18,28.60
2015,07,02,14,19,28.50
2015,07,02,14,20,28.30
2015,07,02,14,21,28.20
2015,07,02,14,22,28.20
2015,07,02,14,23,28.10
2015,07,02,14,24,28.10
2015,07,02,14,25,28.00
2015,07,02,14,26,27.90
2015,07,02,14,27,28.00
2015,07,02,14,28,28.00
2015,07,02,14,29,28.10
2015,07,02,14,30,28.20
2015,07,02,14,31,28.30
2015,07,02,14,32,28.40
2015,07,02,14,33,28.40
2015,07,02,14,34,28.30
2015,07,02,14,35,28.30
2015,07,02,14,36,28.20
2015,07,02,14,37,28.10
2015,07,02,14,38,28.10
2015,07,02,14,39,28.00
2015,07,02,14,40,28.00
2015,07,02,14,41,27.90
2015,07,02,14,42,27.90
2015,07,02,14,43,27.90
2015,07,02,14,44,27.90
2015,07,02,14,45,28.00
2015,07,02,14,46,28.00
2015,07,02,14,47,28.10
2015,07,02,14,48,28.10
2015,07,02,14,49,28.20
2015,07,02,14,50,28.20
2015,07,02,14,51,28.20
2015,07,02,14,52,28.30
2015,07,02,14,53,28.30
2015,07,02,14,54,28.30
2015,07,02,14,55,28.30
2015,07,02,14,56,28.40
2015,07,02,14,57,28.50
2015,07,02,14,58,28.60
2015,07,02,14,59,28.70
2015,07,02,15,00,28.70
2015,07,02,15,01,28.80
2015,07,02,15,02,28.80
2015,07,02,15,03,28.90
2015,07,02,15,04,28.90
2015,07,02,15,05,29.00
2015,07,02,15,06,29.00
2015,07,02,15,07,29.00
2015,07,02,15,08,29.10
2015,07,02,15,09,29.20
2015,07,02,15,10,29.20
2015,07,02,15,11,29.20
2015,07,02,15,12,29.20
2015,07,02,15,13,29.10
2015,07,02,15,14,29.10
2015,07,02,15,15,29.00
2015,07,02,15,16,29.00
2015,07,02,15,17,28.90
2015,07,02,15,18,28.90
2015,07,02,15,19,29.00
2015,07,02,15,20,29.00
2015,07,02,15,21,29.00
2015,07,02,15,22,29.10
2015,07,02,15,23,29.10
2015,07,02,15,24,29.10
2015,07,02,15,25,29.10
2015,07,02,15,26,29.00
2015,07,02,15,27,29.00
2015,07,02,15,28,28.90
2015,07,02,15,29,29.00
2015,07,02,15,30,29.10
2015,07,02,15,31,29.20
2015,07,02,15,32,29.30
2015,07,02,15,33,29.30
2015,07,02,15,34,29.30
2015,07,02,15,35,29.30
2015,07,02,15,36,29.30
2015,07,02,15,37,29.30
2015,07,02,15,38,29.30
2015,07,02,15,39,29.30
2015,07,02,15,40,29.30
2015,07,02,15,41,29.30
2015,07,02,15,42,29.40
2015,07,02,15,43,29.50
2015,07,02,15,44,29.60
2015,07,02,15,45,29.60
2015,07,02,15,46,29.70
2015,07,02,15,47,29.70
2015,07,02,15,48,29.80
2015,07,02,15,49,29.90
2015,07,02,15,50,30.00
2015,07,02,15,51,30.10
2015,07,02,15,52,30.20
2015,07,02,15,53,30.20
2015,07,02,15,54,30.10
2015,07,02,15,55,30.00
2015,07,02,15,56,29.90
2015,07,02,15,57,29.80
2015,07,02,15,58,29.80
2015,07,02,15,59,29.80
2015,07,02,16,00,29.80
2015,07,02,16,01,29.70
2015,07,02,16,02,29.70
2015,07,02,16,03,29.60
2015,07,02,16,04,29.60
2015,07,02,16,05,29.50
2015,07,02,16,06,29.50
2015,07,02,16,07,29.60
2015,07,02,16,08,29.60
2015,07,02,16,09,29.70
2015,07,02,16,10,29.80
2015,07,02,16,11,29.80
2015,07,02,16,12,29.90
2015,07,02,16,13,29.90
2015,07,02,16,14,30.00
2015,07,02,16,15,30.00
2015,07,02,16,16,30.10
2015,07,02,16,17,30.10
2015,07,02,16,18,30.20
2015,07,02,16,19,30.30
2015,07,02,16,20,30.30
2015,07,02,16,21,30.30
2015,07,02,16,22,30.30
2015,07,02,16,23,30.30
2015,07,02,16,24,30.30
2015,07,02,16,25,30.30
2015,07,02,16,26,30.30
2015,07,02,16,27,30.40
2015,07,02,16,28,30.30
2015,07,02,16,29,30.30
2015,07,02,16,30,30.30
2015,07,02,16,31,30.30
2015,07,02,16,32,30.30
2015,07,02,16,33,30.40
2015,07,02,16,34,30.40
2015,07,02,16,35,30.50
2015,07,02,16,36,30.60
2015,07,02,16,37,30.70
2015,07,02,16,38,30.70
2015,07,02,16,39,30.70
2015,07,02,16,40,30.60
2015,07,02,16,41,30.50
2015,07,02,16,42,30.40
2015,07,02,16,43,30.30
2015,07,02,16,44,30.30
2015,07,02,16,45,30.30
2015,07,02,16,46,30.30
2015,07,02,16,47,30.30
2015,07,02,16,48,30.20
2015,07,02,16,49,30.20
2015,07,02,16,50,30.10
2015,07,02,16,51,30.00
2015,07,02,16,52,30.00
2015,07,02,16,53,30.00
2015,07,02,16,54,30.10
2015,07,02,16,55,30.20
2015,07,02,16,56,30.10
2015,07,02,16,57,30.10
2015,07,02,16,58,30.10
2015,07,02,16,59,30.10
2015,07,02,17,00,30.20
2015,07,02,17,01,30.20
2015,07,02,17,02,30.10
2015,07,02,17,03,30.10
2015,07,02,17,04,30.10
2015,07,02,17,05,30.10
2015,07,02,17,06,30.00
2015,07,02,17,07,30.00
2015,07,02,17,08,30.10
2015,07,02,17,09,30.10
2015,07,02,17,10,30.10
2015,07,02,17,11,30.10
2015,07,02,17,12,30.00
2015,07,02,17,13,30.00
2015,07,02,17,14,30.00
2015,07,02,17,15,30.00
2015,07,02,17,16,29.90
2015,07,02,17,17,29.80
2015,07,02,17,18,29.80
2015,07,02,17,19,29.80